User: anonymous   Login
Location: Dackenheim
(49.5215°N, 8.1854°E)
Time: 17:22:19
(UTC+00:00)
Language:

DUCHIFAT 1 - Orbit

View from above orbital plane
View from above orbital plane
View from above satellite
View from above satellite

Ground track
Ground track

The orbit is defined by the following mean orbital elements,

1 40021U          26072.05676029 +.00000000 +00000-0 +10636-2 0 00000
2 40021  98.0637 118.8819 0005782  75.3847 284.8044 15.50256532    08
Epoch (UTC): 13 March 2026 01:21:44
Eccentricity: 0.0005782
inclination: 98.0637°
perigee height: 412 km
apogee height: 420 km
right ascension of ascending node: 118.8819°
argument of perigee: 75.3847°
revolutions per day: 15.50256532
mean anomaly at epoch: 284.8044°

The dashed part of the orbit path shows where the satellite is in the earth's shadow,  

DLR